F4MLU-13 Weather Reports


time (UTC)temp
C
wind
direction
speed
KPH
gust
KPH
rain 1hr
cm
rain 24hr
cm
rain mn
cm
humidity
%
barometer
mb
20260507133020 21 120 0.0 0.0 0.00 0.00 0.00 52
20260507132020 21 161 0.0 0.0 0.00 0.00 0.00 52
20260507131020 21 156 0.0 0.0 0.00 0.00 0.00 51
20260507130020 21 135 0.0 0.0 0.00 0.00 0.00 53
20260507125040 21 149 0.0 0.0 0.00 0.00 0.00 54
20260507124020 21 115 0.0 0.0 0.00 0.00 0.00 53
20260507123020 20 153 0.0 0.0 0.00 0.00 0.00 54
20260507122020 21 137 0.0 0.0 0.00 0.00 0.00 55
20260507121050 21 149 0.0 0.0 0.00 0.00 0.00 55
20260507120020 21 146 0.0 0.0 0.00 0.00 0.00 53
20260507115020 21 153 0.0 0.0 0.00 0.00 0.00 55
20260507114020 20 135 0.0 0.0 0.00 0.00 0.00 57
20260507113020 20 126 0.0 0.0 0.00 0.00 0.00 55
20260507112021 20 151 0.0 0.0 0.00 0.00 0.00 56
20260507111020 20 154 0.0 0.0 0.00 0.00 0.00 57
20260507110020 20 124 0.0 0.0 0.00 0.00 0.00 57
20260507105020 19 92 0.0 0.0 0.00 0.00 0.00 56
20260507104021 19 110 0.0 0.0 0.00 0.00 0.00 56
20260507103020 18 118 0.0 0.0 0.00 0.00 0.00 60
20260507102021 19 149 0.0 0.0 0.00 0.00 0.00 60
20260507101021 18 146 0.0 0.0 0.00 0.00 0.00 62
20260507100021 18 123 0.0 0.0 0.00 0.00 0.00 64
20260507095020 18 136 0.0 0.0 0.00 0.00 0.00 64
20260507094020 18 150 0.0 0.0 0.00 0.00 0.00 65
20260507093021 17 137 0.0 0.0 0.00 0.00 0.00 67
20260507092051 18 139 0.0 0.0 0.00 0.00 0.00 65
20260507091020 17 130 0.0 0.0 0.00 0.00 0.00 67
20260507090021 17 145 0.0 0.0 0.00 0.00 0.00 68
20260507085021 17 142 0.0 0.0 0.00 0.00 0.00 68
20260507084021 16 128 0.0 0.0 0.00 0.00 0.00 73
20260507083020 16 128 0.0 0.0 0.00 0.00 0.00 73
20260507082020 15 141 0.0 0.0 0.00 0.00 0.00 75
20260507081021 15 131 0.0 0.0 0.00 0.00 0.00 77
20260507080041 15 141 0.0 0.0 0.00 0.00 0.00 76
20260507075021 13 142 0.0 0.0 0.00 0.00 0.00 80
20260507074021 12 140 0.0 0.0 0.00 0.00 0.00 82
20260507073101 13 141 0.0 0.0 0.00 0.00 0.00 80
20260507072021 11 139 0.0 0.0 0.00 0.00 0.00 89
20260507071021 10 147 0.0 0.0 0.00 0.00 0.00 94
20260507070021 8 148 0.0 0.0 0.00 0.00 0.00 97
20260507065021 7 148 0.0 0.0 0.00 0.00 0.00 98
20260507064021 7 149 0.0 0.0 0.00 0.00 0.00 98
20260507063021 6 150 0.0 0.0 0.00 0.00 0.00 99
20260507062021 6 150 0.0 0.0 0.00 0.00 0.00 99
20260507061021 5 150 0.0 0.0 0.00 0.00 0.00 99
20260507060021 5 150 0.0 0.0 0.00 0.00 0.00 99
20260507055041 5 150 0.0 0.0 0.00 0.00 0.00 99
20260507054102 4 150 0.0 0.0 0.00 0.00 0.00 99
20260507053041 4 150 0.0 0.0 0.00 0.00 0.00 99
20260507052321 4 150 0.0 0.0 0.00 0.00 0.00 99
20260507051021 4 150 0.0 0.0 0.00 0.00 0.00 99
20260507050021 4 150 0.0 0.0 0.00 0.00 0.00 99
20260507045021 4 150 0.0 0.0 0.00 0.00 0.00 99
20260507044021 4 150 0.0 0.0 0.00 0.00 0.00 99
20260507043021 4 149 0.0 0.0 0.00 0.00 0.00 99
20260507042021 4 149 0.0 0.0 0.00 0.00 0.00 99
20260507041021 4 149 0.0 0.0 0.00 0.00 0.00 99
20260507040021 4 149 0.0 0.0 0.00 0.00 0.00 99
20260507035021 5 149 0.0 0.0 0.00 0.00 0.00 99
20260507034021 4 149 0.0 0.0 0.00 0.00 0.00 99
20260507033021 5 149 0.0 0.0 0.00 0.00 0.00 99
20260507032021 5 149 0.0 0.0 0.00 0.00 0.00 99
20260507031021 5 149 0.0 0.0 0.00 0.00 0.00 99
20260507030021 5 149 0.0 0.0 0.00 0.00 0.00 99
20260507025022 5 149 0.0 0.0 0.00 0.00 0.00 99
20260507024041 5 149 0.0 0.0 0.00 0.00 0.00 99
20260507023041 5 149 0.0 0.0 0.00 0.00 0.00 99
20260507022021 5 149 0.0 0.0 0.00 0.00 0.00 99
20260507021021 5 149 0.0 0.0 0.00 0.00 0.00 99
20260507020021 5 149 0.0 0.0 0.00 0.00 0.00 99
20260507015021 5 149 0.0 0.0 0.00 0.00 0.00 99
20260507014021 6 149 0.0 0.0 0.00 0.00 0.00 99
20260507013111 6 149 0.0 0.0 0.00 0.00 0.00 99
20260507012041 6 149 0.0 0.0 0.00 0.00 0.00 99
20260507011022 6 149 0.0 0.0 0.00 0.00 0.00 99
20260507010022 6 149 0.0 0.0 0.00 0.00 0.00 99
20260507005022 6 149 0.0 0.0 0.00 0.00 0.00 98
20260507004022 6 149 0.0 0.0 0.00 0.00 0.00 98
20260507003041 6 149 0.0 0.0 0.00 0.00 0.00 98
20260507002021 6 149 0.0 0.0 0.00 0.00 0.00 98
20260507001022 7 143 0.0 0.0 0.00 0.00 0.00 98
20260507000022 7 143 0.0 0.0 0.00 0.00 0.00 98
20260506235021 7 166 0.0 0.0 0.00 0.00 0.00 98
20260506234022 7 167 0.0 0.0 0.00 0.00 0.00 98
20260506233042 7 165 0.0 0.0 0.00 0.00 0.00 98
20260506232022 7 157 0.0 0.0 0.00 0.00 0.00 98
20260506231021 7 149 0.0 0.0 0.00 0.00 0.00 98
20260506230022 7 148 0.0 0.0 0.00 0.00 0.00 98
20260506225022 7 148 0.0 0.0 0.00 0.00 0.00 98
20260506224041 8 148 0.0 0.0 0.00 0.00 0.00 98
20260506223022 8 148 0.0 0.0 0.00 0.00 0.00 97
20260506222022 8 148 0.0 0.0 0.00 0.00 0.00 97
20260506221022 8 148 0.0 0.0 0.00 0.00 0.00 97
20260506220022 8 148 0.0 0.0 0.00 0.00 0.00 97
20260506215023 8 148 0.0 0.0 0.00 0.00 0.00 97
20260506214022 8 148 0.0 0.0 0.00 0.00 0.00 96
20260506213022 8 148 0.0 0.0 0.00 0.00 0.00 96
20260506212022 9 148 0.0 0.0 0.00 0.00 0.00 95
20260506211022 9 148 0.0 0.0 0.00 0.00 0.00 94
20260506210022 9 148 0.0 0.0 0.00 0.00 0.00 95
20260506205122 9 162 0.0 0.0 0.00 0.00 0.00 95
20260506204022 9 162 0.0 0.0 0.00 0.00 0.00 95
20260506203022 9 162 0.0 0.0 0.00 0.00 0.00 95
20260506202042 9 149 0.0 0.0 0.00 0.00 0.00 95
20260506201022 10 147 0.0 0.0 0.00 0.00 0.00 95
20260506200022 10 147 0.0 0.0 0.00 0.00 0.00 93
20260506195022 10 147 0.0 0.0 0.00 0.00 0.00 93
20260506194052 10 147 0.0 0.0 0.00 0.00 0.00 92
20260506193022 11 147 0.0 0.0 0.00 0.00 0.00 90
20260506192052 11 147 0.0 0.0 0.00 0.00 0.00 89
20260506191022 11 147 0.0 0.0 0.00 0.00 0.00 87
20260506190022 12 147 0.0 0.0 0.00 0.00 0.00 83
20260506185022 12 147 0.0 0.0 0.00 0.00 0.00 79
20260506184022 13 147 0.0 0.0 0.00 0.00 0.00 76
20260506183022 14 149 0.0 0.0 0.00 0.00 0.00 72
20260506182022 14 150 0.0 0.0 0.00 0.00 0.00 69
20260506181043 16 153 0.0 0.0 0.00 0.00 0.00 63
20260506180022 16 148 0.0 0.0 0.00 0.00 0.00 63
20260506175022 16 180 0.0 0.0 0.00 0.00 0.00 66
20260506174023 15 158 0.0 0.0 0.00 0.00 0.00 67
20260506173043 16 162 0.0 0.0 0.00 0.00 0.00 63
20260506172233 16 147 0.0 0.0 0.00 0.00 0.00 65
20260506171042 15 237 0.0 0.0 0.00 0.00 0.00 66
20260506170022 16 239 0.0 0.0 0.00 0.00 0.00 63
20260506165052 16 140 0.0 0.0 0.00 0.00 0.00 59
20260506164023 18 238 0.0 0.0 0.00 0.00 0.00 55
20260506163023 17 149 0.0 0.0 0.00 0.00 0.00 59
20260506162043 16 270 0.0 0.0 0.00 0.00 0.00 62
20260506161023 16 58 0.0 0.0 0.00 0.00 0.00 62
20260506160022 17 147 0.0 0.0 0.00 0.00 0.00 62
20260506155022 17 144 0.0 0.0 0.00 0.00 0.00 60
20260506154022 17 270 0.0 0.0 0.00 0.00 0.00 57
20260506153053 18 270 0.0 0.0 0.00 0.00 0.00 55
20260506152022 17 272 0.0 0.0 0.00 0.00 0.00 60
20260506151023 17 151 0.0 0.0 0.00 0.00 0.00 60
20260506150023 19 270 0.0 0.0 0.00 0.00 0.00 55
20260506145023 19 273 0.0 1.6 0.00 0.00 0.00 54
20260506144022 17 272 0.0 0.0 0.00 0.00 0.00 58
20260506143022 17 233 0.0 0.0 0.00 0.00 0.00 60
20260506142023 18 248 0.0 0.0 0.00 0.20 0.00 60
20260506141023 17 145 0.0 0.0 0.00 0.41 0.00 63
20260506140052 17 160 0.0 0.0 0.00 0.61 0.00 61